Location: Charlottesville
(38.0290°N, 78.4770°W)
Time: 05:25:52
(UTC-04:00)

Envisat - Pass Details

Date: 09 October 2017
Orbit: 764 x 766 km, 98.2° (Epoch: 17 October)

Event Time Altitude Azimuth Distance (km) Brightness Sun altitude
Exits shadow 20:04:27 23° 64° (ENE) 1,593 4.2 -16.6°
Drops below altitude 10° 20:08:13 10° 16° (NNE) 2,308 5.4 -17.3°
Sets 20:10:57 0° 2° (N) 3,238 6.3 -17.8°
